Year,Month,Day,Hour,Minute,Value (Times are PST for insolation in W/m^2)
2010,06,05,00,00,0.00
2010,06,05,00,05,0.00
2010,06,05,00,06,0.00
2010,06,05,00,07,0.00
2010,06,05,00,08,0.00
2010,06,05,00,09,0.00
2010,06,05,00,10,0.00
2010,06,05,00,11,0.00
2010,06,05,00,12,0.00
2010,06,05,00,13,0.00
2010,06,05,00,14,0.00
2010,06,05,00,15,0.00
2010,06,05,00,16,0.00
2010,06,05,00,17,0.00
2010,06,05,00,18,0.00
2010,06,05,00,19,0.00
2010,06,05,00,20,0.00
2010,06,05,00,21,0.00
2010,06,05,00,22,0.00
2010,06,05,00,23,0.00
2010,06,05,00,24,0.00
2010,06,05,00,25,0.00
2010,06,05,00,26,0.00
2010,06,05,00,27,0.00
2010,06,05,00,28,0.00
2010,06,05,00,29,0.00
2010,06,05,00,30,0.00
2010,06,05,00,31,0.00
2010,06,05,00,32,0.00
2010,06,05,00,33,0.00
2010,06,05,00,34,0.00
2010,06,05,00,35,0.00
2010,06,05,00,36,0.00
2010,06,05,00,37,0.00
2010,06,05,00,38,0.00
2010,06,05,00,39,0.00
2010,06,05,00,40,0.00
2010,06,05,00,41,0.00
2010,06,05,00,42,0.00
2010,06,05,00,43,0.00
2010,06,05,00,44,0.00
2010,06,05,00,45,0.00
2010,06,05,00,46,0.00
2010,06,05,00,47,0.00
2010,06,05,00,48,0.00
2010,06,05,00,49,0.00
2010,06,05,00,50,0.00
2010,06,05,00,51,0.00
2010,06,05,00,52,0.00
2010,06,05,00,53,0.00
2010,06,05,00,54,0.00
2010,06,05,00,55,0.00
2010,06,05,00,56,0.00
2010,06,05,00,57,0.00
2010,06,05,00,58,0.00
2010,06,05,00,59,0.00
2010,06,05,01,00,0.00
2010,06,05,01,01,0.00
2010,06,05,01,02,0.00
2010,06,05,01,03,0.00
2010,06,05,01,04,0.00
2010,06,05,01,05,0.00
2010,06,05,01,06,0.00
2010,06,05,01,07,0.00
2010,06,05,01,08,0.00
2010,06,05,01,09,0.00
2010,06,05,01,10,0.00
2010,06,05,01,11,0.00
2010,06,05,01,12,0.00
2010,06,05,01,13,0.00
2010,06,05,01,14,0.00
2010,06,05,01,15,0.00
2010,06,05,01,16,0.00
2010,06,05,01,17,0.00
2010,06,05,01,18,0.00
2010,06,05,01,19,0.00
2010,06,05,01,20,0.00
2010,06,05,01,21,0.00
2010,06,05,01,22,0.00
2010,06,05,01,23,0.00
2010,06,05,01,24,0.00
2010,06,05,01,25,0.00
2010,06,05,01,26,0.00
2010,06,05,01,27,0.00
2010,06,05,01,28,0.00
2010,06,05,01,29,0.00
2010,06,05,01,30,0.00
2010,06,05,01,31,0.00
2010,06,05,01,32,0.00
2010,06,05,01,33,0.00
2010,06,05,01,34,0.00
2010,06,05,01,35,0.00
2010,06,05,01,36,0.00
2010,06,05,01,37,0.00
2010,06,05,01,38,0.00
2010,06,05,01,39,0.00
2010,06,05,01,40,0.00
2010,06,05,01,41,0.00
2010,06,05,01,42,0.00
2010,06,05,01,43,0.00
2010,06,05,01,44,0.00
2010,06,05,01,45,0.00
2010,06,05,01,46,0.00
2010,06,05,01,47,0.00
2010,06,05,01,48,0.00
2010,06,05,01,49,0.00
2010,06,05,01,50,0.00
2010,06,05,01,51,0.00
2010,06,05,01,52,0.00
2010,06,05,01,53,0.00
2010,06,05,01,54,0.00
2010,06,05,01,55,0.00
2010,06,05,01,56,0.00
2010,06,05,01,57,0.00
2010,06,05,01,58,0.00
2010,06,05,01,59,0.00
2010,06,05,02,00,0.00
2010,06,05,02,01,0.00
2010,06,05,02,02,0.00
2010,06,05,02,03,0.00
2010,06,05,02,04,0.00
2010,06,05,02,05,0.00
2010,06,05,02,06,0.00
2010,06,05,02,07,0.00
2010,06,05,02,08,0.00
2010,06,05,02,09,0.00
2010,06,05,02,10,0.00
2010,06,05,02,11,0.00
2010,06,05,02,12,0.00
2010,06,05,02,13,0.00
2010,06,05,02,14,0.00
2010,06,05,02,15,0.00
2010,06,05,02,16,0.00
2010,06,05,02,17,0.00
2010,06,05,02,18,0.00
2010,06,05,02,19,0.00
2010,06,05,02,20,0.00
2010,06,05,02,21,0.00
2010,06,05,02,22,0.00
2010,06,05,02,23,0.00
2010,06,05,02,24,0.00
2010,06,05,02,25,0.00
2010,06,05,02,26,0.00
2010,06,05,02,27,0.00
2010,06,05,02,28,0.00
2010,06,05,02,29,0.00
2010,06,05,02,30,0.00
2010,06,05,02,31,0.00
2010,06,05,02,32,0.00
2010,06,05,02,33,0.00
2010,06,05,02,34,0.00
2010,06,05,02,35,0.00
2010,06,05,02,36,0.00
2010,06,05,02,37,0.00
2010,06,05,02,38,0.00
2010,06,05,02,39,0.00
2010,06,05,02,40,0.00
2010,06,05,02,41,0.00
2010,06,05,02,42,0.00
2010,06,05,02,43,0.00
2010,06,05,02,44,0.00
2010,06,05,02,45,0.00
2010,06,05,02,46,0.00
2010,06,05,02,47,0.00
2010,06,05,02,48,0.00
2010,06,05,02,49,0.00
2010,06,05,02,50,0.00
2010,06,05,02,51,0.00
2010,06,05,02,52,0.00
2010,06,05,02,53,0.00
2010,06,05,02,54,0.00
2010,06,05,02,55,0.00
2010,06,05,02,56,0.00
2010,06,05,02,57,0.00
2010,06,05,02,58,0.00
2010,06,05,02,59,0.00
2010,06,05,03,00,0.00
2010,06,05,03,01,0.00
2010,06,05,03,02,0.00
2010,06,05,03,03,0.00
2010,06,05,03,04,0.00
2010,06,05,03,05,0.00
2010,06,05,03,06,0.00
2010,06,05,03,07,0.00
2010,06,05,03,08,0.00
2010,06,05,03,09,0.00
2010,06,05,03,10,0.00
2010,06,05,03,11,0.00
2010,06,05,03,12,0.00
2010,06,05,03,13,0.00
2010,06,05,03,14,0.00
2010,06,05,03,15,0.00
2010,06,05,03,16,0.00
2010,06,05,03,17,0.00
2010,06,05,03,18,0.00
2010,06,05,03,19,0.00
2010,06,05,03,20,0.00
2010,06,05,03,21,0.00
2010,06,05,03,22,0.00
2010,06,05,03,23,0.00
2010,06,05,03,24,0.00
2010,06,05,03,25,0.00
2010,06,05,03,26,0.00
2010,06,05,03,27,0.00
2010,06,05,03,28,0.00
2010,06,05,03,29,0.00
2010,06,05,03,30,0.00
2010,06,05,03,31,0.00
2010,06,05,03,32,0.00
2010,06,05,03,33,0.00
2010,06,05,03,34,0.00
2010,06,05,03,35,0.00
2010,06,05,03,36,0.00
2010,06,05,03,37,0.00
2010,06,05,03,38,0.00
2010,06,05,03,39,0.00
2010,06,05,03,40,0.00
2010,06,05,03,41,0.00
2010,06,05,03,42,0.00
2010,06,05,03,43,0.00
2010,06,05,03,44,0.00
2010,06,05,03,45,0.00
2010,06,05,03,46,0.00
2010,06,05,03,47,0.00
2010,06,05,03,48,0.00
2010,06,05,03,49,0.00
2010,06,05,03,50,0.00
2010,06,05,03,51,0.00
2010,06,05,03,52,0.00
2010,06,05,03,53,0.00
2010,06,05,03,54,0.00
2010,06,05,03,55,0.00
2010,06,05,03,56,0.00
2010,06,05,03,57,0.00
2010,06,05,03,58,0.00
2010,06,05,03,59,0.00
2010,06,05,04,00,0.00
2010,06,05,04,01,0.00
2010,06,05,04,02,0.00
2010,06,05,04,03,0.00
2010,06,05,04,04,0.00
2010,06,05,04,05,0.00
2010,06,05,04,06,0.00
2010,06,05,04,07,0.00
2010,06,05,04,08,0.00
2010,06,05,04,09,0.00
2010,06,05,04,10,0.00
2010,06,05,04,11,0.00
2010,06,05,04,12,0.00
2010,06,05,04,13,0.00
2010,06,05,04,14,0.00
2010,06,05,04,15,0.00
2010,06,05,04,16,0.00
2010,06,05,04,17,0.00
2010,06,05,04,18,0.00
2010,06,05,04,19,0.00
2010,06,05,04,20,0.00
2010,06,05,04,21,0.00
2010,06,05,04,22,0.00
2010,06,05,04,23,0.00
2010,06,05,04,24,0.00
2010,06,05,04,25,0.00
2010,06,05,04,26,0.00
2010,06,05,04,27,0.00
2010,06,05,04,28,0.00
2010,06,05,04,29,0.00
2010,06,05,04,30,0.00
2010,06,05,04,31,0.00
2010,06,05,04,32,0.00
2010,06,05,04,33,0.00
2010,06,05,04,34,0.00
2010,06,05,04,35,0.00
2010,06,05,04,36,0.00
2010,06,05,04,37,0.00
2010,06,05,04,38,0.00
2010,06,05,04,39,0.00
2010,06,05,04,40,0.00
2010,06,05,04,41,0.00
2010,06,05,04,42,0.00
2010,06,05,04,43,0.00
2010,06,05,04,44,0.00
2010,06,05,04,45,0.00
2010,06,05,04,46,0.00
2010,06,05,04,47,0.00
2010,06,05,04,48,0.00
2010,06,05,04,49,0.00
2010,06,05,04,50,0.00
2010,06,05,04,51,0.00
2010,06,05,04,52,0.00
2010,06,05,04,53,0.00
2010,06,05,04,54,0.00
2010,06,05,04,55,0.00
2010,06,05,04,56,0.00
2010,06,05,04,57,0.00
2010,06,05,04,58,0.00
2010,06,05,04,59,0.00
2010,06,05,05,00,0.00
2010,06,05,05,01,0.00
2010,06,05,05,02,0.00
2010,06,05,05,03,0.00
2010,06,05,05,04,0.00
2010,06,05,05,05,0.00
2010,06,05,05,06,0.00
2010,06,05,05,07,0.00
2010,06,05,05,08,0.00
2010,06,05,05,09,0.00
2010,06,05,05,10,0.00
2010,06,05,05,11,0.00
2010,06,05,05,12,0.00
2010,06,05,05,13,0.00
2010,06,05,05,14,0.00
2010,06,05,05,15,0.00
2010,06,05,05,16,0.00
2010,06,05,05,17,0.00
2010,06,05,05,18,0.00
2010,06,05,05,19,0.00
2010,06,05,05,20,0.00
2010,06,05,05,21,3.50
2010,06,05,05,22,5.00
2010,06,05,05,23,5.00
2010,06,05,05,24,5.00
2010,06,05,05,25,5.00
2010,06,05,05,26,5.00
2010,06,05,05,27,5.00
2010,06,05,05,28,5.00
2010,06,05,05,29,6.40
2010,06,05,05,30,7.00
2010,06,05,05,31,7.00
2010,06,05,05,32,7.00
2010,06,05,05,33,7.00
2010,06,05,05,34,7.60
2010,06,05,05,35,9.00
2010,06,05,05,36,9.00
2010,06,05,05,37,9.00
2010,06,05,05,38,10.40
2010,06,05,05,39,11.00
2010,06,05,05,40,11.00
2010,06,05,05,41,11.20
2010,06,05,05,42,12.00
2010,06,05,05,43,12.00
2010,06,05,05,44,12.90
2010,06,05,05,45,14.00
2010,06,05,05,46,15.30
2010,06,05,05,47,16.00
2010,06,05,05,48,17.70
2010,06,05,05,49,18.10
2010,06,05,05,50,19.00
2010,06,05,05,51,19.60
2010,06,05,05,52,21.70
2010,06,05,05,53,23.00
2010,06,05,05,54,24.20
2010,06,05,05,55,25.70
2010,06,05,05,56,26.00
2010,06,05,05,57,27.90
2010,06,05,05,58,28.20
2010,06,05,05,59,30.40
2010,06,05,06,00,32.00
2010,06,05,06,01,32.40
2010,06,05,06,02,34.00
2010,06,05,06,03,36.30
2010,06,05,06,04,37.00
2010,06,05,06,05,38.80
2010,06,05,06,06,40.00
2010,06,05,06,07,40.30
2010,06,05,06,08,42.00
2010,06,05,06,09,42.00
2010,06,05,06,10,43.00
2010,06,05,06,11,45.10
2010,06,05,06,12,46.00
2010,06,05,06,13,46.80
2010,06,05,06,14,48.90
2010,06,05,06,15,49.10
2010,06,05,06,16,51.40
2010,06,05,06,17,53.00
2010,06,05,06,18,52.20
2010,06,05,06,19,51.00
2010,06,05,06,20,51.00
2010,06,05,06,21,51.00
2010,06,05,06,22,49.40
2010,06,05,06,23,49.00
2010,06,05,06,24,49.00
2010,06,05,06,25,49.40
2010,06,05,06,26,52.00
2010,06,05,06,27,57.80
2010,06,05,06,28,66.60
2010,06,05,06,29,72.70
2010,06,05,06,30,86.40
2010,06,05,06,31,92.70
2010,06,05,06,32,95.00
2010,06,05,06,33,97.20
2010,06,05,06,34,96.10
2010,06,05,06,35,94.50
2010,06,05,06,36,101.80
2010,06,05,06,37,104.60
2010,06,05,06,38,106.40
2010,06,05,06,39,108.70
2010,06,05,06,40,112.80
2010,06,05,06,41,116.20
2010,06,05,06,42,118.70
2010,06,05,06,43,121.60
2010,06,05,06,44,124.60
2010,06,05,06,45,128.70
2010,06,05,06,46,132.70
2010,06,05,06,47,134.70
2010,06,05,06,48,138.60
2010,06,05,06,49,141.00
2010,06,05,06,50,144.20
2010,06,05,06,51,146.80
2010,06,05,06,52,149.70
2010,06,05,06,53,152.90
2010,06,05,06,54,156.80
2010,06,05,06,55,158.00
2010,06,05,06,56,161.90
2010,06,05,06,57,164.90
2010,06,05,06,58,169.20
2010,06,05,06,59,171.50
2010,06,05,07,00,175.20
2010,06,05,07,01,179.20
2010,06,05,07,02,183.10
2010,06,05,07,03,185.60
2010,06,05,07,04,188.80
2010,06,05,07,05,192.50
2010,06,05,07,06,197.00
2010,06,05,07,07,200.40
2010,06,05,07,08,204.60
2010,06,05,07,09,207.70
2010,06,05,07,10,209.90
2010,06,05,07,11,212.70
2010,06,05,07,12,215.40
2010,06,05,07,13,219.10
2010,06,05,07,14,222.70
2010,06,05,07,15,227.10
2010,06,05,07,16,229.60
2010,06,05,07,17,232.60
2010,06,05,07,18,234.70
2010,06,05,07,19,236.40
2010,06,05,07,20,239.50
2010,06,05,07,21,242.40
2010,06,05,07,22,243.80
2010,06,05,07,23,247.80
2010,06,05,07,24,250.00
2010,06,05,07,25,251.90
2010,06,05,07,26,255.70
2010,06,05,07,27,257.40
2010,06,05,07,28,260.00
2010,06,05,07,29,263.30
2010,06,05,07,30,264.80
2010,06,05,07,31,268.60
2010,06,05,07,32,271.20
2010,06,05,07,33,274.30
2010,06,05,07,34,276.50
2010,06,05,07,35,279.10
2010,06,05,07,36,281.90
2010,06,05,07,37,285.20
2010,06,05,07,38,287.70
2010,06,05,07,39,291.20
2010,06,05,07,40,293.90
2010,06,05,07,41,294.50
2010,06,05,07,42,299.50
2010,06,05,07,43,303.10
2010,06,05,07,44,306.70
2010,06,05,07,45,308.50
2010,06,05,07,46,310.30
2010,06,05,07,47,313.90
2010,06,05,07,48,315.80
2010,06,05,07,49,319.60
2010,06,05,07,50,322.50
2010,06,05,07,51,325.50
2010,06,05,07,52,328.10
2010,06,05,07,53,330.90
2010,06,05,07,54,332.00
2010,06,05,07,55,335.60
2010,06,05,07,56,340.40
2010,06,05,07,57,342.80
2010,06,05,07,58,346.20
2010,06,05,07,59,350.40
2010,06,05,08,00,352.30
2010,06,05,08,01,354.70
2010,06,05,08,02,358.00
2010,06,05,08,03,360.80
2010,06,05,08,04,363.30
2010,06,05,08,05,366.20
2010,06,05,08,06,375.50
2010,06,05,08,07,374.60
2010,06,05,08,08,332.00
2010,06,05,08,09,380.30
2010,06,05,08,10,383.60
2010,06,05,08,11,387.00
2010,06,05,08,12,387.60
2010,06,05,08,13,389.60
2010,06,05,08,14,391.80
2010,06,05,08,15,395.60
2010,06,05,08,16,397.40
2010,06,05,08,17,401.40
2010,06,05,08,18,404.10
2010,06,05,08,19,406.90
2010,06,05,08,20,409.70
2010,06,05,08,21,412.40
2010,06,05,08,22,416.20
2010,06,05,08,23,417.90
2010,06,05,08,24,420.20
2010,06,05,08,25,424.60
2010,06,05,08,26,427.00
2010,06,05,08,27,429.10
2010,06,05,08,28,433.10
2010,06,05,08,29,435.20
2010,06,05,08,30,438.10
2010,06,05,08,31,440.70
2010,06,05,08,32,442.80
2010,06,05,08,33,445.10
2010,06,05,08,34,447.20
2010,06,05,08,35,452.70
2010,06,05,08,36,454.00
2010,06,05,08,37,457.90
2010,06,05,08,38,461.60
2010,06,05,08,39,463.40
2010,06,05,08,40,467.60
2010,06,05,08,41,466.00
2010,06,05,08,42,426.20
2010,06,05,08,43,484.10
2010,06,05,08,44,488.90
2010,06,05,08,45,497.00
2010,06,05,08,46,508.20
2010,06,05,08,47,518.50
2010,06,05,08,48,529.10
2010,06,05,08,49,550.70
2010,06,05,08,50,482.00
2010,06,05,08,51,494.20
2010,06,05,08,52,543.00
2010,06,05,08,53,543.00
2010,06,05,08,54,543.00
2010,06,05,08,55,543.00
2010,06,05,08,56,543.00
2010,06,05,08,57,543.00
2010,06,05,08,58,601.00
2010,06,05,08,59,598.20
2010,06,05,09,00,589.20
2010,06,05,09,01,582.40
2010,06,05,09,02,579.10
2010,06,05,09,03,581.30
2010,06,05,09,04,588.80
2010,06,05,09,05,593.30
2010,06,05,09,06,600.00
2010,06,05,09,07,603.20
2010,06,05,09,08,606.40
2010,06,05,09,09,609.60
2010,06,05,09,10,614.70
2010,06,05,09,11,619.50
2010,06,05,09,12,625.30
2010,06,05,09,13,628.00
2010,06,05,09,14,626.20
2010,06,05,09,15,624.10
2010,06,05,09,16,623.80
2010,06,05,09,17,622.00
2010,06,05,09,18,622.00
2010,06,05,09,19,621.50
2010,06,05,09,20,621.60
2010,06,05,09,21,624.40
2010,06,05,09,22,628.10
2010,06,05,09,23,629.00
2010,06,05,09,24,623.80
2010,06,05,09,25,620.70
2010,06,05,09,26,619.50
2010,06,05,09,27,621.40
2010,06,05,09,28,624.00
2010,06,05,09,29,624.90
2010,06,05,09,30,622.50
2010,06,05,09,31,625.20
2010,06,05,09,32,628.80
2010,06,05,09,33,630.80
2010,06,05,09,34,629.00
2010,06,05,09,35,630.70
2010,06,05,09,36,635.00
2010,06,05,09,37,636.70
2010,06,05,09,38,638.00
2010,06,05,09,39,641.50
2010,06,05,09,40,644.70
2010,06,05,09,41,645.00
2010,06,05,09,42,647.00
2010,06,05,09,43,647.60
2010,06,05,09,44,650.70
2010,06,05,09,45,653.70
2010,06,05,09,46,656.60
2010,06,05,09,47,658.40
2010,06,05,09,48,660.60
2010,06,05,09,49,661.00
2010,06,05,09,50,661.20
2010,06,05,09,51,663.50
2010,06,05,09,52,666.00
2010,06,05,09,53,667.40
2010,06,05,09,54,670.50
2010,06,05,09,55,672.30
2010,06,05,09,56,674.50
2010,06,05,09,57,676.70
2010,06,05,09,58,677.20
2010,06,05,09,59,680.20
2010,06,05,10,00,682.40
2010,06,05,10,01,684.60
2010,06,05,10,02,686.50
2010,06,05,10,03,689.10
2010,06,05,10,04,692.30
2010,06,05,10,05,693.00
2010,06,05,10,06,693.80
2010,06,05,10,07,696.10
2010,06,05,10,08,698.30
2010,06,05,10,09,700.30
2010,06,05,10,10,702.60
2010,06,05,10,11,705.00
2010,06,05,10,12,706.80
2010,06,05,10,13,708.00
2010,06,05,10,14,709.50
2010,06,05,10,15,714.20
2010,06,05,10,16,715.40
2010,06,05,10,17,718.60
2010,06,05,10,18,718.90
2010,06,05,10,19,724.80
2010,06,05,10,20,727.20
2010,06,05,10,21,728.70
2010,06,05,10,22,732.20
2010,06,05,10,23,734.80
2010,06,05,10,24,737.10
2010,06,05,10,25,740.00
2010,06,05,10,26,740.00
2010,06,05,10,27,742.10
2010,06,05,10,28,747.90
2010,06,05,10,29,750.80
2010,06,05,10,30,754.70
2010,06,05,10,31,757.60
2010,06,05,10,32,758.90
2010,06,05,10,33,765.10
2010,06,05,10,34,767.00
2010,06,05,10,35,773.50
2010,06,05,10,36,778.10
2010,06,05,10,37,784.20
2010,06,05,10,38,792.40
2010,06,05,10,39,798.60
2010,06,05,10,40,805.60
2010,06,05,10,41,813.60
2010,06,05,10,42,815.60
2010,06,05,10,43,830.30
2010,06,05,10,44,833.30
2010,06,05,10,45,838.00
2010,06,05,10,46,839.20
2010,06,05,10,47,842.70
2010,06,05,10,48,842.60
2010,06,05,10,49,845.20
2010,06,05,10,50,846.20
2010,06,05,10,51,849.00
2010,06,05,10,52,850.20
2010,06,05,10,53,854.00
2010,06,05,10,54,861.40
2010,06,05,10,55,873.70
2010,06,05,10,56,890.30
2010,06,05,10,57,897.50
2010,06,05,10,58,903.10
2010,06,05,10,59,912.20
2010,06,05,11,00,914.00
2010,06,05,11,01,911.20
2010,06,05,11,02,916.80
2010,06,05,11,03,929.10
2010,06,05,11,04,917.40
2010,06,05,11,05,867.90
2010,06,05,11,06,849.00
2010,06,05,11,07,849.00
2010,06,05,11,08,849.00
2010,06,05,11,09,849.00
2010,06,05,11,10,879.60
2010,06,05,11,11,932.00
2010,06,05,11,12,962.10
2010,06,05,11,13,984.00
2010,06,05,11,14,550.00
2010,06,05,11,15,359.80
2010,06,05,11,16,363.50
2010,06,05,11,17,376.00
2010,06,05,11,18,376.00
2010,06,05,11,19,374.80
2010,06,05,11,20,370.30
2010,06,05,11,21,365.20
2010,06,05,11,22,370.00
2010,06,05,11,23,400.80
2010,06,05,11,24,406.00
2010,06,05,11,25,406.00
2010,06,05,11,26,406.00
2010,06,05,11,27,427.00
2010,06,05,11,28,469.00
2010,06,05,11,29,507.80
2010,06,05,11,30,536.00
2010,06,05,11,31,536.00
2010,06,05,11,32,454.60
2010,06,05,11,33,445.00
2010,06,05,11,34,433.00
2010,06,05,11,35,373.00
2010,06,05,11,36,388.40
2010,06,05,11,37,400.80
2010,06,05,11,38,376.70
2010,06,05,11,39,396.10
2010,06,05,11,40,404.00
2010,06,05,11,41,404.00
2010,06,05,11,42,404.00
2010,06,05,11,43,401.00
2010,06,05,11,44,388.60
2010,06,05,11,45,410.20
2010,06,05,11,46,425.90
2010,06,05,11,47,409.00
2010,06,05,11,48,406.00
2010,06,05,11,49,406.00
2010,06,05,11,50,406.00
2010,06,05,11,51,470.50
2010,06,05,11,52,1042.80
2010,06,05,11,53,1009.70
2010,06,05,11,54,993.00
2010,06,05,11,55,983.20
2010,06,05,11,56,971.20
2010,06,05,11,57,969.80
2010,06,05,11,58,979.80
2010,06,05,11,59,991.30
2010,06,05,12,00,1003.40
2010,06,05,12,01,1016.30
2010,06,05,12,02,1026.10
2010,06,05,12,03,1020.00
2010,06,05,12,04,984.00
2010,06,05,12,05,960.80
2010,06,05,12,06,1040.80
2010,06,05,12,07,973.50
2010,06,05,12,08,1014.00
2010,06,05,12,09,972.40
2010,06,05,12,10,856.00
2010,06,05,12,11,856.00
2010,06,05,12,12,862.70
2010,06,05,12,13,868.00
2010,06,05,12,14,742.70
2010,06,05,12,15,698.00
2010,06,05,12,16,685.20
2010,06,05,12,17,453.40
2010,06,05,12,18,453.60
2010,06,05,12,19,481.60
2010,06,05,12,20,486.60
2010,06,05,12,21,480.00
2010,06,05,12,22,480.00
2010,06,05,12,23,480.00
2010,06,05,12,24,480.00
2010,06,05,12,25,480.00
2010,06,05,12,26,480.00
2010,06,05,12,27,480.00
2010,06,05,12,28,480.00
2010,06,05,12,29,480.00
2010,06,05,12,30,825.50
2010,06,05,12,31,1048.80
2010,06,05,12,32,1000.80
2010,06,05,12,33,1073.70
2010,06,05,12,34,1089.70
2010,06,05,12,35,1089.10
2010,06,05,12,36,1088.50
2010,06,05,12,37,1064.50
2010,06,05,12,38,1072.40
2010,06,05,12,39,1092.00
2010,06,05,12,40,1092.00
2010,06,05,12,41,1066.20
2010,06,05,12,42,1063.00
2010,06,05,12,43,967.90
2010,06,05,12,44,429.00
2010,06,05,12,45,463.20
2010,06,05,12,46,561.10
2010,06,05,12,47,615.00
2010,06,05,12,48,615.00
2010,06,05,12,49,615.00
2010,06,05,12,50,615.00
2010,06,05,12,51,615.00
2010,06,05,12,52,591.60
2010,06,05,12,53,504.00
2010,06,05,12,54,504.00
2010,06,05,12,55,504.00
2010,06,05,12,56,561.00
2010,06,05,12,57,596.00
2010,06,05,12,58,596.00
2010,06,05,12,59,596.00
2010,06,05,13,00,596.00
2010,06,05,13,01,596.00
2010,06,05,13,02,559.20
2010,06,05,13,03,497.50
2010,06,05,13,04,525.60
2010,06,05,13,05,510.10
2010,06,05,13,06,429.50
2010,06,05,13,07,481.40
2010,06,05,13,08,490.00
2010,06,05,13,09,476.00
2010,06,05,13,10,413.50
2010,06,05,13,11,431.00
2010,06,05,13,12,797.30
2010,06,05,13,13,1127.00
2010,06,05,13,14,707.80
2010,06,05,13,15,666.00
2010,06,05,13,16,680.00
2010,06,05,13,17,680.00
2010,06,05,13,18,680.00
2010,06,05,13,19,680.00
2010,06,05,13,20,834.20
2010,06,05,13,21,1012.20
2010,06,05,13,22,942.50
2010,06,05,13,23,916.00
2010,06,05,13,24,916.00
2010,06,05,13,25,988.80
2010,06,05,13,26,986.80
2010,06,05,13,27,990.70
2010,06,05,13,28,988.60
2010,06,05,13,29,986.00
2010,06,05,13,30,984.70
2010,06,05,13,31,931.30
2010,06,05,13,32,905.00
2010,06,05,13,33,905.00
2010,06,05,13,34,999.30
2010,06,05,13,35,1022.50
2010,06,05,13,36,1032.80
2010,06,05,13,37,1021.90
2010,06,05,13,38,1033.10
2010,06,05,13,39,1073.90
2010,06,05,13,40,1102.50
2010,06,05,13,41,1113.00
2010,06,05,13,42,1074.60
2010,06,05,13,43,432.70
2010,06,05,13,44,490.00
2010,06,05,13,45,490.00
2010,06,05,13,46,490.00
2010,06,05,13,47,862.00
2010,06,05,13,48,1157.40
2010,06,05,13,49,1165.00
2010,06,05,13,50,1165.00
2010,06,05,13,51,1165.00
2010,06,05,13,52,1078.60
2010,06,05,13,53,589.00
2010,06,05,13,54,618.50
2010,06,05,13,55,659.00
2010,06,05,13,56,659.00
2010,06,05,13,57,855.00
2010,06,05,13,58,925.00
2010,06,05,13,59,925.00
2010,06,05,14,00,925.00
2010,06,05,14,01,925.00
2010,06,05,14,02,925.00
2010,06,05,14,03,828.20
2010,06,05,14,04,704.20
2010,06,05,14,05,691.30
2010,06,05,14,06,644.40
2010,06,05,14,07,654.50
2010,06,05,14,08,681.40
2010,06,05,14,09,889.00
2010,06,05,14,10,847.80
2010,06,05,14,11,724.00
2010,06,05,14,12,724.00
2010,06,05,14,13,724.00
2010,06,05,14,14,724.00
2010,06,05,14,15,961.80
2010,06,05,14,16,1041.00
2010,06,05,14,17,1041.00
2010,06,05,14,18,1041.00
2010,06,05,14,19,1041.00
2010,06,05,14,20,1041.00
2010,06,05,14,21,823.50
2010,06,05,14,22,606.00
2010,06,05,14,23,477.80
2010,06,05,14,24,425.70
2010,06,05,14,25,429.50
2010,06,05,14,26,438.00
2010,06,05,14,27,441.20
2010,06,05,14,28,450.70
2010,06,05,14,29,451.10
2010,06,05,14,30,452.30
2010,06,05,14,31,468.40
2010,06,05,14,32,475.00
2010,06,05,14,33,510.10
2010,06,05,14,34,555.70
2010,06,05,14,35,582.60
2010,06,05,14,36,573.00
2010,06,05,14,37,573.00
2010,06,05,14,38,573.00
2010,06,05,14,39,573.00
2010,06,05,14,40,499.30
2010,06,05,14,41,477.20
2010,06,05,14,42,478.00
2010,06,05,14,43,704.40
2010,06,05,14,44,765.00
2010,06,05,14,45,755.70
2010,06,05,14,46,737.00
2010,06,05,14,47,642.10
2010,06,05,14,48,573.00
2010,06,05,14,49,573.00
2010,06,05,14,50,573.00
2010,06,05,14,51,587.30
2010,06,05,14,52,839.50
2010,06,05,14,53,904.70
2010,06,05,14,54,935.00
2010,06,05,14,55,986.30
2010,06,05,14,56,1022.50
2010,06,05,14,57,1007.00
2010,06,05,14,58,1194.50
2010,06,05,14,59,1232.00
2010,06,05,15,00,1232.00
2010,06,05,15,01,1232.00
2010,06,05,15,02,1232.00
2010,06,05,15,03,1232.00
2010,06,05,15,04,1232.00
2010,06,05,15,05,1232.00
2010,06,05,15,06,1232.00
2010,06,05,15,07,575.20
2010,06,05,15,08,481.70
2010,06,05,15,09,449.00
2010,06,05,15,10,404.80
2010,06,05,15,11,374.70
2010,06,05,15,12,359.00
2010,06,05,15,13,350.10
2010,06,05,15,14,348.00
2010,06,05,15,15,348.00
2010,06,05,15,16,349.90
2010,06,05,15,17,348.10
2010,06,05,15,18,347.70
2010,06,05,15,19,346.00
2010,06,05,15,20,343.10
2010,06,05,15,21,337.40
2010,06,05,15,22,333.60
2010,06,05,15,23,330.60
2010,06,05,15,24,330.00
2010,06,05,15,25,334.10
2010,06,05,15,26,340.20
2010,06,05,15,27,350.00
2010,06,05,15,28,368.70
2010,06,05,15,29,447.70
2010,06,05,15,30,499.00
2010,06,05,15,31,484.20
2010,06,05,15,32,468.00
2010,06,05,15,33,498.40
2010,06,05,15,34,565.40
2010,06,05,15,35,560.70
2010,06,05,15,36,591.00
2010,06,05,15,37,591.00
2010,06,05,15,38,536.10
2010,06,05,15,39,468.50
2010,06,05,15,40,456.20
2010,06,05,15,41,448.70
2010,06,05,15,42,446.10
2010,06,05,15,43,456.50
2010,06,05,15,44,481.40
2010,06,05,15,45,494.90
2010,06,05,15,46,463.30
2010,06,05,15,47,420.50
2010,06,05,15,48,484.70
2010,06,05,15,49,480.20
2010,06,05,15,50,456.60
2010,06,05,15,51,469.40
2010,06,05,15,52,427.30
2010,06,05,15,53,381.00
2010,06,05,15,54,407.60
2010,06,05,15,55,503.40
2010,06,05,15,56,555.00
2010,06,05,15,57,708.50
2010,06,05,15,58,803.00
2010,06,05,15,59,803.00
2010,06,05,16,00,803.00
2010,06,05,16,01,760.50
2010,06,05,16,02,588.40
2010,06,05,16,03,546.70
2010,06,05,16,04,527.00
2010,06,05,16,05,499.50
2010,06,05,16,06,482.00
2010,06,05,16,07,725.20
2010,06,05,16,08,714.90
2010,06,05,16,09,707.00
2010,06,05,16,10,707.00
2010,06,05,16,11,733.90
2010,06,05,16,12,776.90
2010,06,05,16,13,770.10
2010,06,05,16,14,764.70
2010,06,05,16,15,757.50
2010,06,05,16,16,751.60
2010,06,05,16,17,746.50
2010,06,05,16,18,737.80
2010,06,05,16,19,736.50
2010,06,05,16,20,733.50
2010,06,05,16,21,729.50
2010,06,05,16,22,728.00
2010,06,05,16,23,726.60
2010,06,05,16,24,724.50
2010,06,05,16,25,721.20
2010,06,05,16,26,719.10
2010,06,05,16,27,720.20
2010,06,05,16,28,716.40
2010,06,05,16,29,714.70
2010,06,05,16,30,713.00
2010,06,05,16,31,710.80
2010,06,05,16,32,710.00
2010,06,05,16,33,707.30
2010,06,05,16,34,705.00
2010,06,05,16,35,700.90
2010,06,05,16,36,699.60
2010,06,05,16,37,697.30
2010,06,05,16,38,696.00
2010,06,05,16,39,694.30
2010,06,05,16,40,693.00
2010,06,05,16,41,691.40
2010,06,05,16,42,687.20
2010,06,05,16,43,686.00
2010,06,05,16,44,685.10
2010,06,05,16,45,679.70
2010,06,05,16,46,678.20
2010,06,05,16,47,674.90
2010,06,05,16,48,671.80
2010,06,05,16,49,669.00
2010,06,05,16,50,668.00
2010,06,05,16,51,664.60
2010,06,05,16,52,663.50
2010,06,05,16,53,658.20
2010,06,05,16,54,656.30
2010,06,05,16,55,656.60
2010,06,05,16,56,656.00
2010,06,05,16,57,656.00
2010,06,05,16,58,651.50
2010,06,05,16,59,647.60
2010,06,05,17,00,644.90
2010,06,05,17,01,643.00
2010,06,05,17,02,642.20
2010,06,05,17,03,638.50
2010,06,05,17,04,636.90
2010,06,05,17,05,636.80
2010,06,05,17,06,635.30
2010,06,05,17,07,633.30
2010,06,05,17,08,629.20